TimePST,TemperatureF,Dew PointF,Humidity,Sea Level PressureIn,VisibilityMPH,Wind Direction,Wind SpeedMPH,Gust SpeedMPH,PrecipitationIn,Events,Conditions,WindDirDegrees,DateUTC
12:02 AM,12.2,8.6,85,30.28,1.5,Calm,Calm,-,N/A,,Overcast,0,2013-01-02 08:02:00
12:06 AM,12.2,8.6,85,30.27,3.0,Calm,Calm,-,N/A,,Overcast,0,2013-01-02 08:06:00
12:09 AM,10.4,8.6,92,30.27,1.8,Calm,Calm,-,N/A,,Overcast,0,2013-01-02 08:09:00
12:16 AM,10.4,8.6,92,30.27,0.8,Calm,Calm,-,N/A,,Mist,0,2013-01-02 08:16:00
12:40 AM,10.4,6.8,85,30.26,1.5,Calm,Calm,-,N/A,,Overcast,0,2013-01-02 08:40:00
12:53 AM,10.9,7.0,84,30.52,1.8,Calm,Calm,-,N/A,,Overcast,0,2013-01-02 08:53:00
12:56 AM,10.4,6.8,85,30.26,3.0,Calm,Calm,-,N/A,,Overcast,0,2013-01-02 08:56:00
1:19 AM,10.4,6.8,85,30.26,1.8,Calm,Calm,-,N/A,,Overcast,0,2013-01-02 09:19:00
1:29 AM,10.4,6.8,85,30.27,3.0,Calm,Calm,-,N/A,,Overcast,0,2013-01-02 09:29:00
1:53 AM,10.9,7.0,84,30.53,3.0,Calm,Calm,-,N/A,,Overcast,0,2013-01-02 09:53:00
2:01 AM,10.4,6.8,85,30.27,1.5,Variable,3.5,-,N/A,,Overcast,0,2013-01-02 10:01:00
2:08 AM,10.4,6.8,85,30.27,1.2,SE,3.5,-,N/A,,Overcast,140,2013-01-02 10:08:00
2:12 AM,10.4,6.8,85,30.27,2.0,Calm,Calm,-,N/A,,Overcast,0,2013-01-02 10:12:00
2:18 AM,10.4,6.8,85,30.27,1.2,SE,3.5,-,N/A,,Overcast,130,2013-01-02 10:18:00
2:28 AM,10.4,6.8,85,30.28,2.0,Calm,Calm,-,N/A,,Overcast,0,2013-01-02 10:28:00
2:38 AM,10.4,6.8,85,30.28,1.2,Calm,Calm,-,N/A,,Overcast,0,2013-01-02 10:38:00
2:51 AM,10.4,6.8,85,30.27,2.0,SE,4.6,-,N/A,,Overcast,130,2013-01-02 10:51:00
2:53 AM,10.0,6.1,84,30.54,2.5,SE,3.5,-,N/A,,Overcast,130,2013-01-02 10:53:00
3:02 AM,10.4,6.8,85,30.27,1.8,Calm,Calm,-,N/A,,Overcast,0,2013-01-02 11:02:00
3:07 AM,10.4,6.8,85,30.27,3.0,Calm,Calm,-,N/A,,Overcast,0,2013-01-02 11:07:00
3:17 AM,10.4,6.8,85,30.27,1.8,Calm,Calm,-,N/A,,Overcast,0,2013-01-02 11:17:00
3:23 AM,10.4,6.8,85,30.27,0.8,Calm,Calm,-,N/A,,Mist,0,2013-01-02 11:23:00
3:35 AM,10.4,6.8,85,30.26,2.0,SE,3.5,-,N/A,,Overcast,130,2013-01-02 11:35:00
3:42 AM,10.4,6.8,85,30.26,0.8,Calm,Calm,-,N/A,,Mist,0,2013-01-02 11:42:00
4:07 AM,10.4,6.8,85,30.26,2.0,Calm,Calm,-,N/A,,Overcast,0,2013-01-02 12:07:00
4:16 AM,10.4,6.8,85,30.26,1.2,Variable,3.5,-,N/A,,Overcast,0,2013-01-02 12:16:00
4:46 AM,10.4,6.8,85,30.25,0.8,SE,5.8,-,N/A,,Mist,140,2013-01-02 12:46:00
4:53 AM,10.0,7.0,87,30.52,0.8,Calm,Calm,-,N/A,,Mist,0,2013-01-02 12:53:00
4:57 AM,10.4,6.8,85,30.26,1.0,Variable,3.5,-,N/A,,Mist,0,2013-01-02 12:57:00
5:08 AM,10.4,6.8,85,30.26,1.5,Variable,5.8,-,N/A,,Overcast,0,2013-01-02 13:08:00
5:39 AM,10.4,6.8,85,30.26,1.0,ESE,4.6,-,N/A,,Mist,110,2013-01-02 13:39:00
5:53 AM,10.0,6.1,84,30.53,0.8,Variable,4.6,-,N/A,,Mist,0,2013-01-02 13:53:00
6:10 AM,10.4,6.8,85,30.26,1.5,ESE,4.6,-,N/A,,Overcast,120,2013-01-02 14:10:00
6:18 AM,10.4,6.8,85,30.26,1.0,ESE,5.8,-,N/A,,Mist,120,2013-01-02 14:18:00
6:38 AM,10.4,6.8,85,30.26,0.8,SE,8.1,-,N/A,,Mist,140,2013-01-02 14:38:00
7:01 AM,8.6,6.8,92,30.26,0.8,SE,8.1,-,N/A,,Mist,140,2013-01-02 15:01:00
7:53 AM,10.0,6.1,84,30.52,0.5,SE,9.2,-,N/A,Fog,Light Freezing Fog,140,2013-01-02 15:53:00
8:38 AM,10.4,6.8,85,30.27,0.2,SE,9.2,18.4,0.00,Fog-Snow,Light Snow,140,2013-01-02 16:38:00
8:50 AM,10.4,6.8,85,30.27,0.5,SSE,11.5,18.4,0.00,Fog,Light Freezing Fog,150,2013-01-02 16:50:00
8:53 AM,10.0,7.0,87,30.54,0.5,SSE,10.4,-,0.00,Fog,Light Freezing Fog,150,2013-01-02 16:53:00
9:00 AM,10.4,6.8,85,30.27,0.2,SSE,10.4,-,N/A,Fog,Light Freezing Fog,160,2013-01-02 17:00:00
9:44 AM,10.4,8.6,92,30.27,0.5,SSE,12.7,18.4,N/A,Fog,Light Freezing Fog,160,2013-01-02 17:44:00
9:53 AM,12.0,8.1,84,30.54,0.5,South,10.4,18.4,N/A,Fog,Light Freezing Fog,180,2013-01-02 17:53:00
10:08 AM,12.2,8.6,85,30.27,1.5,SSE,10.4,-,N/A,,Overcast,160,2013-01-02 18:08:00
10:18 AM,12.2,8.6,85,30.27,1.0,South,8.1,-,N/A,,Mist,170,2013-01-02 18:18:00
10:35 AM,12.2,8.6,85,30.27,0.5,South,9.2,-,N/A,Fog,Light Freezing Fog,170,2013-01-02 18:35:00
10:53 AM,12.9,10.0,88,30.53,0.5,South,9.2,-,N/A,Fog,Light Freezing Fog,170,2013-01-02 18:53:00
11:14 AM,12.2,10.4,92,30.27,1.5,South,10.4,-,N/A,,Overcast,170,2013-01-02 19:14:00
11:20 AM,14.0,10.4,86,30.27,3.0,South,8.1,-,N/A,,Mostly Cloudy,170,2013-01-02 19:20:00
11:40 AM,14.0,10.4,86,30.27,1.8,South,8.1,-,N/A,,Mostly Cloudy,170,2013-01-02 19:40:00
11:44 AM,14.0,10.4,86,30.27,0.8,South,6.9,-,N/A,,Mist,170,2013-01-02 19:44:00
11:53 AM,14.0,10.9,88,30.52,1.2,South,6.9,-,N/A,,Mostly Cloudy,180,2013-01-02 19:53:00
11:57 AM,14.0,10.4,86,30.26,2.0,South,6.9,-,N/A,,Mostly Cloudy,180,2013-01-02 19:57:00
12:03 PM,14.0,10.4,86,30.26,1.2,South,6.9,-,N/A,,Mostly Cloudy,180,2013-01-02 20:03:00
12:15 PM,15.8,10.4,79,30.26,2.5,South,6.9,-,N/A,,Mostly Cloudy,180,2013-01-02 20:15:00
12:22 PM,15.8,10.4,79,30.26,2.0,South,6.9,-,N/A,,Scattered Clouds,170,2013-01-02 20:22:00
12:35 PM,15.8,10.4,79,30.26,1.0,South,8.1,-,N/A,,Mist,170,2013-01-02 20:35:00
12:43 PM,14.0,10.4,86,30.26,0.5,South,9.2,-,N/A,Fog,Light Freezing Fog,170,2013-01-02 20:43:00
12:53 PM,14.0,10.9,88,30.51,1.0,South,8.1,-,N/A,,Mist,170,2013-01-02 20:53:00
1:00 PM,15.8,10.4,79,30.25,2.0,South,6.9,-,N/A,,Mostly Cloudy,180,2013-01-02 21:00:00
1:06 PM,15.8,10.4,79,30.25,1.2,South,8.1,-,N/A,,Mostly Cloudy,170,2013-01-02 21:06:00
1:15 PM,14.0,10.4,86,30.26,0.5,South,8.1,-,N/A,Fog,Light Freezing Fog,180,2013-01-02 21:15:00
1:36 PM,14.0,10.4,86,30.26,0.2,South,5.8,-,N/A,Fog,Light Freezing Fog,180,2013-01-02 21:36:00
1:48 PM,14.0,10.4,86,30.26,0.8,South,5.8,-,N/A,,Mist,180,2013-01-02 21:48:00
1:53 PM,15.1,10.9,84,30.52,1.2,South,4.6,-,N/A,,Mostly Cloudy,180,2013-01-02 21:53:00
1:55 PM,15.8,10.4,79,30.26,2.0,South,4.6,-,N/A,,Mostly Cloudy,180,2013-01-02 21:55:00
1:59 PM,15.8,10.4,79,30.26,5.0,South,4.6,-,N/A,,Scattered Clouds,180,2013-01-02 21:59:00
2:53 PM,15.1,10.9,84,30.53,10.0,South,5.8,-,N/A,,Clear,180,2013-01-02 22:53:00
3:53 PM,15.1,10.9,84,30.53,10.0,South,8.1,-,N/A,,Clear,180,2013-01-02 23:53:00
4:53 PM,15.1,10.9,84,30.53,10.0,South,8.1,-,N/A,,Clear,180,2013-01-03 00:53:00
5:53 PM,16.0,10.9,81,30.53,10.0,South,8.1,-,N/A,,Clear,180,2013-01-03 01:53:00
6:53 PM,17.1,9.0,71,30.53,10.0,South,4.6,-,N/A,,Clear,170,2013-01-03 02:53:00
7:53 PM,19.9,6.1,55,30.50,10.0,SW,3.5,-,N/A,,Clear,220,2013-01-03 03:53:00
8:53 PM,19.0,8.1,62,30.49,10.0,South,6.9,-,N/A,,Clear,170,2013-01-03 04:53:00
9:53 PM,21.0,7.0,55,30.47,10.0,South,5.8,-,N/A,,Clear,170,2013-01-03 05:53:00
10:53 PM,24.1,6.1,46,30.44,10.0,South,3.5,-,N/A,,Clear,180,2013-01-03 06:53:00
11:53 PM,25.0,7.0,46,30.41,10.0,South,5.8,-,N/A,,Clear,180,2013-01-03 07:53:00